Time,TemperatureF,DewpointF,PressureIn,WindDirection,WindDirectionDegrees,WindSpeedMPH,WindSpeedGustMPH,Humidity,HourlyPrecipIn,Conditions,Clouds,dailyrainin,SoftwareType,DateUTC
2013-02-16 06:11:00,30.0,22.0,-100.00,ESE,114,0.0,0.0,73,-99.99,,,-99.99,,2013-02-16 14:11:00,
2013-02-16 06:21:00,30.0,22.0,-100.00,ESE,114,0.0,0.0,73,-99.99,,,-99.99,,2013-02-16 14:21:00,
2013-02-16 07:52:00,30.0,24.0,-100.00,ESE,112,0.0,0.0,79,-99.99,,,-99.99,,2013-02-16 15:52:00,
2013-02-16 08:01:00,30.0,23.0,-100.00,ESE,117,0.0,0.0,77,-99.99,,,-99.99,,2013-02-16 16:01:00,
2013-02-16 08:11:00,30.0,23.0,-100.00,ESE,117,0.0,0.0,77,-99.99,,,-99.99,,2013-02-16 16:11:00,
2013-02-16 08:21:00,30.0,23.0,-100.00,ESE,117,0.0,0.0,77,-99.99,,,-99.99,,2013-02-16 16:21:00,
2013-02-16 08:32:00,30.0,23.0,-100.00,ESE,114,0.0,0.0,74,-99.99,,,-99.99,,2013-02-16 16:32:00,
2013-02-16 08:41:00,31.0,23.0,-100.00,ESE,116,0.0,0.0,72,-99.99,,,-99.99,,2013-02-16 16:41:00,
2013-02-16 08:51:00,31.0,23.0,-100.00,ESE,116,0.0,0.0,72,-99.99,,,-99.99,,2013-02-16 16:51:00,
2013-02-16 09:01:00,31.0,25.0,-100.00,South,171,0.0,0.0,79,-99.99,,,-99.99,,2013-02-16 17:01:00,
2013-02-16 09:11:00,31.0,25.0,-100.00,SSE,164,0.0,0.0,78,-99.99,,,-99.99,,2013-02-16 17:11:00,
2013-02-16 09:21:00,31.0,25.0,-100.00,South,175,0.0,0.0,79,-99.99,,,-99.99,,2013-02-16 17:21:00,
2013-02-16 09:32:00,31.0,25.0,-100.00,SSE,160,0.0,0.0,77,-99.99,,,-99.99,,2013-02-16 17:32:00,
2013-02-16 09:41:00,32.0,25.0,-100.00,SSW,198,0.0,0.0,74,-99.99,,,-99.99,,2013-02-16 17:41:00,
2013-02-16 09:52:00,32.0,25.0,-100.00,SSW,198,0.0,0.0,74,-99.99,,,-99.99,,2013-02-16 17:52:00,
2013-02-16 10:02:00,34.0,25.0,-100.00,WNW,285,0.0,0.0,70,-99.99,,,-99.99,,2013-02-16 18:02:00,
2013-02-16 10:11:00,34.0,26.0,-100.00,WNW,295,0.0,0.0,71,-99.99,,,-99.99,,2013-02-16 18:11:00,
2013-02-16 10:21:00,34.0,26.0,-100.00,WNW,295,0.0,0.0,71,-99.99,,,-99.99,,2013-02-16 18:21:00,
2013-02-16 10:33:00,35.0,26.0,-100.00,WNW,296,0.0,0.0,71,-99.99,,,-99.99,,2013-02-16 18:33:00,
2013-02-16 10:41:00,36.0,28.0,-100.00,WNW,292,0.0,0.0,71,-99.99,,,-99.99,,2013-02-16 18:41:00,
2013-02-16 10:42:00,35.0,27.0,-100.00,WNW,294,0.0,0.0,72,-99.99,,,-99.99,,2013-02-16 18:42:00,
2013-02-16 10:51:00,35.0,27.0,-100.00,NNW,335,0.0,0.0,71,-99.99,,,-99.99,,2013-02-16 18:51:00,
2013-02-16 11:02:00,36.0,27.0,-100.00,WNW,301,0.0,0.0,72,-99.99,,,-99.99,,2013-02-16 19:02:00,
2013-02-16 11:11:00,36.0,27.0,-100.00,WNW,295,0.0,0.0,71,-99.99,,,-99.99,,2013-02-16 19:11:00,
2013-02-16 11:21:00,36.0,28.0,-100.00,WNW,292,0.0,0.0,71,-99.99,,,-99.99,,2013-02-16 19:21:00,
2013-02-16 11:31:00,36.0,28.0,-100.00,WNW,292,0.0,0.0,71,-99.99,,,-99.99,,2013-02-16 19:31:00,
2013-02-16 11:52:00,37.0,28.0,-100.00,West,271,0.0,0.0,70,-99.99,,,-99.99,,2013-02-16 19:52:00,
2013-02-16 12:01:00,37.0,28.0,-100.00,WNW,287,0.0,0.0,69,-99.99,,,-99.99,,2013-02-16 20:01:00,
2013-02-16 12:11:00,37.0,28.0,-100.00,NW,309,0.0,0.0,69,-99.99,,,-99.99,,2013-02-16 20:11:00,
2013-02-16 12:21:00,37.0,28.0,-100.00,WSW,241,0.0,0.0,69,-99.99,,,-99.99,,2013-02-16 20:21:00,
2013-02-16 12:32:00,38.0,28.0,-100.00,WNW,289,0.0,0.0,68,-99.99,,,-99.99,,2013-02-16 20:32:00,
2013-02-16 12:42:00,38.0,28.0,-100.00,WNW,299,0.0,0.0,67,-99.99,,,-99.99,,2013-02-16 20:42:00,
2013-02-16 12:52:00,37.0,28.0,-100.00,WNW,299,0.0,0.0,68,-99.99,,,-99.99,,2013-02-16 20:52:00,
2013-02-16 13:02:00,37.0,27.0,-100.00,NW,308,0.0,0.0,66,-99.99,,,-99.99,,2013-02-16 21:02:00,
2013-02-16 13:11:00,37.0,28.0,-100.00,WNW,295,0.0,0.0,70,-99.99,,,-99.99,,2013-02-16 21:11:00,
2013-02-16 13:21:00,37.0,28.0,-100.00,NW,320,0.0,0.0,69,-99.99,,,-99.99,,2013-02-16 21:21:00,
2013-02-16 13:31:00,37.0,29.0,-100.00,WNW,295,0.0,0.0,70,-99.99,,,-99.99,,2013-02-16 21:31:00,
2013-02-16 13:41:00,38.0,29.0,-100.00,NW,308,0.0,0.0,70,-99.99,,,-99.99,,2013-02-16 21:41:00,
2013-02-16 13:52:00,38.0,29.0,-100.00,NW,308,0.0,0.0,70,-99.99,,,-99.99,,2013-02-16 21:52:00,
2013-02-16 14:01:00,38.0,29.0,-100.00,West,271,0.0,0.0,69,-99.99,,,-99.99,,2013-02-16 22:01:00,
2013-02-16 14:11:00,38.0,29.0,-100.00,West,271,0.0,0.0,69,-99.99,,,-99.99,,2013-02-16 22:11:00,
2013-02-16 14:21:00,38.0,29.0,-100.00,NW,309,0.0,0.0,69,-99.99,,,-99.99,,2013-02-16 22:21:00,
2013-02-16 14:32:00,39.0,30.0,-100.00,NNW,344,0.0,0.0,70,-99.99,,,-99.99,,2013-02-16 22:32:00,
2013-02-16 14:42:00,39.0,30.0,-100.00,NNW,344,0.0,0.0,70,-99.99,,,-99.99,,2013-02-16 22:42:00,
2013-02-16 14:51:00,38.0,29.0,-100.00,NNW,340,0.0,0.0,69,-99.99,,,-99.99,,2013-02-16 22:51:00,
2013-02-16 15:02:00,39.0,30.0,-100.00,NNW,340,0.0,0.0,69,-99.99,,,-99.99,,2013-02-16 23:02:00,
2013-02-16 15:11:00,39.0,30.0,-100.00,North,353,0.0,0.0,70,-99.99,,,-99.99,,2013-02-16 23:11:00,
2013-02-16 15:21:00,39.0,30.0,-100.00,North,353,0.0,0.0,70,-99.99,,,-99.99,,2013-02-16 23:21:00,
2013-02-16 15:31:00,40.0,30.0,-100.00,NW,319,0.0,0.0,68,-99.99,,,-99.99,,2013-02-16 23:31:00,
2013-02-16 15:52:00,40.0,32.0,-100.00,NNW,335,0.0,0.0,72,-99.99,,,-99.99,,2013-02-16 23:52:00,
2013-02-16 16:02:00,41.0,31.0,-100.00,East,83,0.0,0.0,67,-99.99,,,-99.99,,2013-02-17 00:02:00,
2013-02-16 16:11:00,41.0,33.0,-100.00,WNW,296,0.0,0.0,72,-99.99,,,-99.99,,2013-02-17 00:11:00,
2013-02-16 16:21:00,42.0,30.0,-100.00,NE,45,0.0,0.0,63,-99.99,,,-99.99,,2013-02-17 00:21:00,
2013-02-16 16:31:00,43.0,32.0,-100.00,WSW,247,0.0,0.0,65,-99.99,,,-99.99,,2013-02-17 00:31:00,
2013-02-16 16:41:00,42.0,19.0,-100.00,SE,131,0.0,0.0,39,-99.99,,,-99.99,,2013-02-17 00:41:00,
2013-02-16 16:51:00,42.0,19.0,-100.00,SE,131,0.0,0.0,39,-99.99,,,-99.99,,2013-02-17 00:51:00,
2013-02-16 17:01:00,42.0,19.0,-100.00,SE,131,0.0,0.0,39,-99.99,,,-99.99,,2013-02-17 01:01:00,
2013-02-16 17:11:00,43.0,20.0,-100.00,ESE,113,0.0,0.0,39,-99.99,,,-99.99,,2013-02-17 01:11:00,
2013-02-16 17:21:00,43.0,20.0,-100.00,ESE,113,0.0,0.0,39,-99.99,,,-99.99,,2013-02-17 01:21:00,
2013-02-16 17:31:00,43.0,20.0,-100.00,ESE,113,0.0,0.0,39,-99.99,,,-99.99,,2013-02-17 01:31:00,
2013-02-16 18:01:00,42.0,20.0,-100.00,East,96,0.0,0.0,41,-99.99,,,-99.99,,2013-02-17 02:01:00,
2013-02-16 18:11:00,42.0,20.0,-100.00,SSE,150,0.0,0.0,42,-99.99,,,-99.99,,2013-02-17 02:11:00,
2013-02-16 18:21:00,42.0,22.0,-100.00,SE,134,0.0,0.0,44,-99.99,,,-99.99,,2013-02-17 02:21:00,
2013-02-16 18:31:00,42.0,22.0,-100.00,SE,134,0.0,0.0,44,-99.99,,,-99.99,,2013-02-17 02:31:00,
2013-02-16 18:41:00,40.0,24.0,-100.00,ESE,117,0.0,0.0,51,-99.99,,,-99.99,,2013-02-17 02:41:00,
2013-02-16 18:52:00,40.0,25.0,-100.00,ESE,106,0.0,0.0,53,-99.99,,,-99.99,,2013-02-17 02:52:00,
2013-02-16 19:01:00,41.0,25.0,-100.00,SE,126,1.0,3.0,53,-99.99,,,-99.99,,2013-02-17 03:01:00,
2013-02-16 19:11:00,41.0,25.0,-100.00,SE,126,1.0,3.0,53,-99.99,,,-99.99,,2013-02-17 03:11:00,
2013-02-16 19:21:00,41.0,25.0,-100.00,SE,126,1.0,3.0,53,-99.99,,,-99.99,,2013-02-17 03:21:00,
2013-02-16 19:42:00,40.0,27.0,-100.00,ESE,123,3.0,4.0,61,-99.99,,,-99.99,,2013-02-17 03:42:00,
2013-02-16 19:52:00,39.0,27.0,-100.00,ESE,110,3.0,5.0,63,-99.99,,,-99.99,,2013-02-17 03:52:00,
2013-02-16 20:01:00,39.0,27.0,-100.00,SE,140,2.0,4.0,61,-99.99,,,-99.99,,2013-02-17 04:01:00,
2013-02-16 20:11:00,38.0,26.0,-100.00,SE,128,3.0,4.0,63,-99.99,,,-99.99,,2013-02-17 04:11:00,
2013-02-16 20:21:00,38.0,27.0,-100.00,SE,141,3.0,6.0,64,-99.99,,,-99.99,,2013-02-17 04:21:00,
2013-02-16 20:31:00,37.0,26.0,-100.00,ESE,120,3.0,4.0,64,-99.99,,,-99.99,,2013-02-17 04:31:00,
2013-02-16 20:41:00,37.0,24.0,-100.00,East,95,3.0,5.0,60,-99.99,,,-99.99,,2013-02-17 04:41:00,
2013-02-16 20:51:00,37.0,24.0,-100.00,East,95,3.0,5.0,60,-99.99,,,-99.99,,2013-02-17 04:51:00,
2013-02-16 21:01:00,37.0,23.0,-100.00,East,82,3.0,5.0,57,-99.99,,,-99.99,,2013-02-17 05:01:00,
2013-02-16 21:12:00,36.0,23.0,-100.00,East,96,2.0,4.0,57,-99.99,,,-99.99,,2013-02-17 05:12:00,
2013-02-16 21:22:00,36.0,24.0,-100.00,East,80,3.0,5.0,60,-99.99,,,-99.99,,2013-02-17 05:22:00,
2013-02-16 21:32:00,37.0,24.0,-100.00,ENE,75,4.0,6.0,58,-99.99,,,-99.99,,2013-02-17 05:32:00,
2013-02-16 21:42:00,37.0,24.0,-100.00,East,88,4.0,6.0,60,-99.99,,,-99.99,,2013-02-17 05:42:00,
2013-02-16 21:52:00,37.0,24.0,-100.00,East,88,4.0,6.0,60,-99.99,,,-99.99,,2013-02-17 05:52:00,
2013-02-16 22:11:00,36.0,25.0,-100.00,SE,124,2.0,3.0,63,-99.99,,,-99.99,,2013-02-17 06:11:00,
2013-02-16 22:21:00,35.0,23.0,-100.00,SE,128,4.0,5.0,62,-99.99,,,-99.99,,2013-02-17 06:21:00,
2013-02-16 22:31:00,35.0,23.0,-100.00,SE,138,4.0,5.0,62,-99.99,,,-99.99,,2013-02-17 06:31:00,
2013-02-16 22:41:00,35.0,23.0,-100.00,SE,138,4.0,5.0,62,-99.99,,,-99.99,,2013-02-17 06:41:00,
2013-02-16 22:51:00,34.0,23.0,-100.00,SE,128,5.0,6.0,64,-99.99,,,-99.99,,2013-02-17 06:51:00,
2013-02-16 23:01:00,34.0,24.0,-100.00,ESE,121,3.0,4.0,64,-99.99,,,-99.99,,2013-02-17 07:01:00,
2013-02-16 23:11:00,34.0,24.0,-100.00,SE,124,4.0,5.0,66,-99.99,,,-99.99,,2013-02-17 07:11:00,
2013-02-16 23:21:00,34.0,24.0,-100.00,SE,127,4.0,5.0,67,-99.99,,,-99.99,,2013-02-17 07:21:00,
2013-02-16 23:31:00,34.0,25.0,-100.00,SE,141,4.0,5.0,68,-99.99,,,-99.99,,2013-02-17 07:31:00,
2013-02-16 23:41:00,34.0,24.0,-100.00,SE,134,4.0,5.0,66,-99.99,,,-99.99,,2013-02-17 07:41:00,
2013-02-16 23:51:00,33.0,24.0,-100.00,SE,130,4.0,5.0,67,-99.99,,,-99.99,,2013-02-17 07:51:00,